Theta_e
348 349 348 347 347 348 349 348 347 348 345 346 347 349 347 347 344 343 343 340 340 341 343 344 340 342 344 345 345 342 340 343 341 337 341 342 338 342 341 333 335 341 337
348 350 349 347 347 347 349 347 345 346 348 347 346 349 347 343 347 343 345 344 339 339 339 341 342 342 343 344 343 344 343 338 339 336 342 341 341 336 334 332 332 333 333
348 348 350 351 350 348 348 348 347 345 343 337 335 346 348 344 348 345 345 345 343 338 338 338 339 340 342 347 347 343 342 341 338 337 341 341 341 340 338 334 336 340 339
348 349 352 352 352 349 348 345 350 349 342 335 335 337 335 346 348 345 347 345 344 343 339 337 338 338 338 340 342 345 341 341 341 340 338 335 336 339 340 338 337 338 340
348 349 349 351 348 351 350 348 350 347 337 337 336 337 336 340 341 337 345 347 344 344 344 342 339 338 338 345 343 346 342 340 340 340 337 340 340 335 335 334 331 331 333
350 350 349 349 349 352 348 350 348 344 340 338 335 339 339 339 341 341 343 344 344 344 345 346 345 344 340 340 341 341 344 343 339 340 340 341 340 340 340 340 339 339 339
348 348 349 349 349 347 347 346 349 346 342 337 337 339 339 340 341 342 344 344 345 345 345 347 347 345 344 341 342 341 340 340 339 340 340 340 341 341 341 340 340 339 338
348 348 349 351 350 352 349 348 348 344 338 336 337 339 338 339 341 341 344 344 343 342 341 340 341 344 345 344 344 338 338 340 340 340 340 340 340 340 340 340 340 341 341
350 348 349 349 351 350 352 349 348 344 339 339 335 339 340 339 340 340 341 344 344 341 338 337 340 343 342 340 334 328 332 338 339 337 332 327 324 325 332 339 340 340 340
349 349 349 349 351 353 352 350 348 345 337 339 339 338 338 341 338 341 339 340 341 341 337 336 338 338 332 332 320 321 321 323 323 324 325 324 322 319 317 317 318 320 322
349 349 350 350 351 351 351 347 347 346 340 338 339 339 339 338 340 340 340 339 340 339 339 336 335 337 334 331 325 326 324 327 327 327 326 326 326 325 324 323 321 318 318
352 350 352 351 351 352 350 348 346 346 342 336 336 339 338 338 338 340 341 340 339 338 336 337 334 334 337 334 328 326 326 326 327 328 328 327 327 327 327 326 326 326 325
351 352 351 349 352 350 349 348 346 346 344 338 330 339 339 338 337 337 337 338 338 337 335 335 335 335 334 336 334 327 327 327 327 327 327 328 328 328 328 328 328 328 328
351 350 348 349 348 350 350 350 347 346 344 340 334 335 338 339 337 337 336 336 337 335 334 335 335 335 334 332 335 329 330 327 327 326 327 327 327 328 329 329 329 329 330
352 349 345 347 350 350 351 351 349 347 345 340 337 334 336 338 337 337 335 335 335 335 334 334 333 331 333 333 332 331 334 332 328 327 328 328 327 327 328 329 329 329 328
350 351 348 350 353 352 352 351 350 348 345 341 340 337 334 337 337 337 336 335 334 334 335 333 333 333 331 333 331 330 331 329 329 329 330 330 329 328 329 329 329 328 328
349 350 347 350 352 350 351 352 350 348 344 343 339 338 336 336 335 336 336 336 335 334 335 335 333 332 330 332 334 333 334 333 333 330 329 330 331 330 330 330 329 326 327
349 349 349 349 353 352 351 351 351 348 346 345 342 339 338 337 335 337 336 337 335 335 335 337 335 335 333 335 335 333 334 329 329 329 327 330 330 329 327 326 326 327 325
350 350 351 350 351 353 351 350 351 350 347 346 344 342 340 338 336 336 336 336 336 337 336 335 334 335 335 334 334 332 329 331 330 328 327 328 327 326 325 325 325 321 318
351 350 350 350 349 350 352 351 351 351 348 347 345 344 343 340 337 337 336 338 338 337 337 336 336 335 335 335 334 334 333 332 332 330 328 329 327 327 323 322 322 319 318
352 350 350 350 350 349 351 351 350 350 349 348 346 345 344 342 338 333 332 337 338 338 337 337 336 334 335 334 334 334 334 332 330 329 328 329 328 327 327 328 326 322 320
353 353 352 351 351 350 350 349 350 350 349 348 348 347 345 342 342 339 333 334 337 339 338 337 335 335 335 335 334 334 333 332 331 330 329 329 328 329 328 327 324 321 320
355 354 353 352 352 351 348 347 348 350 350 349 348 348 347 343 343 341 338 332 334 336 337 340 338 338 337 336 335 332 332 330 331 331 330 329 329 328 325 323 322 316 314
355 356 355 354 353 351 349 348 348 349 350 350 349 349 348 345 343 343 340 339 337 337 337 337 339 339 338 335 333 333 333 332 331 329 329 328 325 324 322 320 318 315 310
354 354 355 356 355 354 351 348 348 347 350 351 350 349 348 346 345 343 343 343 341 340 338 338 338 337 336 334 331 331 330 329 329 328 327 324 321 321 319 318 316 313 308
354 353 354 355 355 355 354 351 349 349 350 352 350 348 347 346 345 344 342 340 342 341 338 336 336 335 333 331 330 330 331 330 329 324 322 319 319 318 317 314 314 311 310
Wind_Speed
4 3 3 3 2 3 2 2 2 1 1 1 1 1 2 2 4 4 4 5 6 5 5 6 5 7 7 7 7 7 5 5 5 5 5 6 5 5 4 4 3 2 3
6 5 5 5 6 5 3 2 2 1 1 1 1 3 1 1 1 2 4 3 4 3 3 5 7 6 7 7 7 8 7 6 8 6 6 6 6 5 6 5 4 3 4
8 7 5 6 6 6 5 4 3 2 2 1 0 1 3 2 1 3 3 3 3 3 4 3 3 6 7 8 7 8 8 8 7 8 7 8 9 9 7 6 6 6 6
11 10 8 7 7 7 6 5 3 3 1 2 2 2 2 4 3 2 3 3 3 4 4 4 3 2 3 6 7 8 8 11 10 10 10 9 9 10 10 9 8 9 9
15 13 11 9 9 8 6 5 1 1 2 3 3 2 2 2 2 1 2 3 4 4 5 7 6 4 2 3 4 6 6 7 11 12 10 11 10 9 10 10 11 11 11
16 16 15 12 10 7 7 5 3 1 0 1 2 3 3 2 2 2 4 3 1 2 3 5 6 5 4 3 4 4 6 6 7 9 9 10 11 11 12 12 12 11 11
15 16 15 13 11 9 7 5 3 3 1 1 1 2 3 4 5 5 5 5 5 5 5 3 1 2 3 5 3 3 4 6 6 6 6 6 7 9 11 13 13 13 13
15 15 18 14 12 9 8 5 6 3 2 2 1 2 3 3 3 3 4 4 4 5 5 5 3 2 2 2 1 1 1 1 3 3 3 2 2 5 7 10 12 12 12
18 16 17 17 14 11 8 7 7 6 3 3 3 1 3 2 4 1 2 2 3 3 4 5 5 5 5 4 4 4 4 5 4 4 3 2 1 2 3 4 5 8 9
21 18 18 16 16 11 10 9 9 8 5 4 3 3 1 1 3 4 4 4 4 3 2 3 4 4 4 5 7 8 9 9 9 9 8 6 4 3 3 3 3 3 3
25 22 20 17 17 15 13 11 11 11 8 5 6 5 3 3 2 3 4 6 7 6 5 4 4 4 4 5 6 7 9 9 8 6 6 7 7 6 4 3 3 4 3
22 25 20 19 18 16 16 13 13 13 11 8 7 7 6 4 6 5 4 5 7 6 6 7 7 6 6 6 7 7 7 6 4 2 2 3 4 5 5 4 4 4 4
20 21 23 22 19 20 18 16 15 15 15 12 10 9 8 7 5 6 4 2 4 5 4 6 9 10 10 9 9 10 9 7 6 4 4 4 5 6 7 7 7 6 6
22 23 25 24 23 21 21 19 17 17 17 15 14 13 10 10 8 7 6 6 4 5 5 6 4 6 10 13 13 14 12 12 11 10 10 10 10 10 10 10 11 11 12
22 25 26 25 25 25 24 22 19 20 20 18 16 15 13 11 9 8 7 6 7 4 3 4 5 4 2 4 9 15 14 15 15 15 16 17 17 17 16 16 16 15 15
32 23 26 25 24 24 25 26 21 21 22 19 16 16 17 13 12 10 9 8 7 7 4 4 6 5 4 2 4 6 9 10 11 14 17 18 19 19 19 18 17 16 17
38 35 32 28 26 24 25 27 26 22 25 22 20 18 17 15 13 12 12 11 10 9 9 5 7 7 8 7 6 6 6 7 10 14 16 18 18 20 17 16 16 19 17
41 41 39 33 28 26 25 28 28 23 26 24 22 20 18 16 18 15 14 14 13 12 10 9 7 8 10 9 9 8 6 6 8 11 13 12 11 11 13 15 14 13 13
40 40 36 35 32 29 30 28 29 27 27 26 24 24 22 21 20 18 18 16 15 13 13 12 11 10 9 9 8 10 11 9 8 10 12 16 17 16 14 14 13 14 16
41 41 41 40 39 35 32 29 29 29 28 28 27 26 25 25 25 23 22 18 16 15 14 14 13 12 11 9 9 10 11 9 8 8 12 12 13 16 15 13 14 16 15
40 44 42 41 42 39 35 33 33 32 30 31 28 28 28 29 29 29 27 22 18 17 16 15 15 13 13 10 11 10 11 11 12 10 6 9 9 9 10 15 16 15 16
39 38 39 40 39 40 38 42 41 34 31 34 31 28 25 32 33 30 25 25 24 22 21 18 16 16 14 12 14 12 11 10 6 6 5 10 11 13 13 15 16 16 15
37 39 39 39 41 43 43 49 47 39 34 35 34 30 24 28 34 31 29 29 31 29 26 19 18 17 14 16 13 13 10 10 12 12 8 13 10 14 14 14 14 11 14
40 39 41 41 40 43 46 49 51 49 38 35 35 31 27 27 31 32 31 32 27 26 28 25 22 18 17 15 14 9 9 8 10 11 9 9 12 13 12 12 16 17 14
36 40 39 38 41 42 45 52 51 46 42 36 32 30 30 32 32 28 25 20 19 21 22 25 23 19 18 16 12 8 7 6 7 9 6 9 9 11 14 16 14 13 13
37 33 33 36 38 38 40 46 51 41 40 36 31 32 37 35 29 24 26 22 21 22 18 18 19 17 14 14 12 11 8 10 10 8 3 6 11 13 12 13 11 15 15
Wind_Direction
267 298 302 278 304 315 320 348 145 151 137 309 206 93 53 82 92 122 155 137 156 177 208 211 204 201 204 203 207 207 206 219 219 226 214 211 210 217 229 241 242 227 295
253 288 281 281 286 300 285 320 6 47 343 334 338 198 192 123 170 151 141 162 162 176 200 218 218 212 212 213 220 219 218 237 230 228 233 228 232 244 250 245 246 258 279
243 258 272 273 280 297 259 263 322 322 46 7 187 182 251 222 199 209 200 180 192 186 199 205 222 231 227 220 222 226 238 250 243 236 237 247 252 254 259 256 254 265 274
245 256 263 265 266 276 274 300 327 354 39 30 187 24 285 215 209 234 214 197 204 195 209 206 212 189 226 240 237 239 238 242 247 246 243 249 245 255 256 262 264 265 268
243 248 253 256 272 271 262 267 304 350 34 69 71 41 28 163 205 185 205 208 225 223 220 231 218 226 238 236 263 250 249 240 244 245 244 250 249 257 262 266 269 267 268
238 241 244 246 263 252 260 261 221 240 41 42 37 57 70 71 76 58 114 122 77 219 218 222 216 232 238 254 267 267 253 248 249 253 253 257 255 259 262 264 264 268 270
233 238 237 239 247 248 256 252 218 234 247 282 177 111 81 81 76 81 89 77 73 80 75 66 129 238 256 255 263 274 262 247 244 244 250 257 250 255 265 266 267 270 270
236 241 233 232 239 237 251 236 212 191 173 169 156 164 186 140 97 77 85 89 86 89 75 56 48 66 95 119 89 357 339 145 209 204 222 243 262 268 278 263 257 261 266
238 241 238 234 234 238 242 237 230 217 194 177 192 214 182 200 174 134 95 103 101 105 78 66 78 86 91 85 74 68 93 98 99 98 98 85 35 334 313 296 275 271 270
237 238 243 233 232 235 240 247 239 224 212 189 173 210 211 147 207 187 197 192 189 184 158 106 94 106 109 111 109 110 100 95 94 91 75 67 57 41 28 15 360 347 338
235 238 235 236 240 239 243 248 240 229 235 218 202 173 185 193 192 245 216 194 215 216 218 208 175 161 147 139 137 132 130 117 103 84 61 54 45 36 24 6 345 343 350
233 231 229 233 240 237 239 243 242 230 233 236 223 209 207 208 200 205 230 233 234 217 230 231 222 208 201 192 183 172 163 165 159 131 49 18 16 14 9 1 358 352 338
222 221 225 233 235 236 235 236 237 231 230 231 236 227 227 222 201 201 227 215 242 222 240 245 236 226 221 223 222 218 216 216 223 240 264 284 304 320 326 316 311 309 306
226 223 227 230 232 233 229 233 232 230 226 226 232 228 226 224 216 209 212 206 206 214 227 246 243 238 239 241 235 238 243 247 256 266 270 273 277 282 290 297 297 295 293
229 226 226 231 234 230 226 228 224 228 227 224 228 227 218 217 218 222 216 215 247 252 242 218 221 219 251 268 251 243 249 254 259 267 276 280 278 280 285 288 290 287 288
232 224 226 228 227 228 226 225 221 225 225 222 220 222 219 218 215 214 218 217 222 243 258 218 215 213 231 270 285 265 255 261 262 269 275 275 268 273 277 279 277 282 286
233 230 229 226 226 225 226 225 222 221 222 222 221 224 223 219 216 212 214 217 218 218 239 222 215 220 230 236 235 229 239 264 282 291 288 283 274 280 276 275 280 287 288
231 233 231 229 227 226 227 226 223 220 221 220 219 219 219 216 219 214 215 216 220 217 231 239 224 217 221 230 231 236 241 254 281 288 291 286 278 276 279 281 280 281 285
225 228 227 226 225 225 228 231 224 223 225 224 221 219 218 215 217 212 210 215 216 217 224 230 230 220 219 221 226 240 232 261 283 286 282 279 281 281 274 271 269 281 282
218 221 224 225 228 226 227 227 224 222 225 227 225 224 222 220 220 216 217 214 212 215 220 227 239 233 227 226 230 240 248 252 278 294 301 295 273 269 269 263 277 292 287
217 220 220 221 224 224 223 222 221 220 220 226 226 226 227 229 230 234 228 221 215 220 227 231 237 236 226 214 228 248 253 262 279 291 292 287 273 270 270 282 285 284 277
215 216 215 215 215 219 220 225 228 220 219 225 226 228 227 235 237 236 233 231 228 218 219 227 236 234 235 226 230 239 252 265 290 264 280 284 283 278 281 282 279 282 285
214 215 215 215 216 219 220 228 229 222 222 224 228 226 220 230 237 228 229 237 234 236 232 225 231 233 233 226 228 236 228 246 270 284 274 286 288 284 294 290 289 292 297
212 214 216 215 217 220 220 224 230 228 225 225 228 225 220 227 237 230 226 236 231 229 232 235 230 236 235 248 228 228 236 259 272 275 260 273 290 289 295 292 294 298 298
214 217 218 218 217 220 220 223 218 218 224 224 223 219 219 227 239 231 234 233 235 229 228 232 235 241 245 233 217 220 247 248 267 276 257 273 300 294 298 295 291 295 302
216 218 222 223 225 227 224 222 216 213 218 214 211 214 226 230 229 224 210 219 231 224 220 214 215 219 217 222 224 223 245 246 263 280 228 278 305 306 305 294 287 302 306